| time (UTC) | temp F | wind direction | speed knots | gust knots | rain 1hr in | rain 24hr in | rain mn in | humidity % | barometer mb |
| 20260503190113 | 57 | 315 | 7.0 | 17.4 | 0.00 | 0.00 | 0.00 | 38 | 1010.8 |
| 20260503185004 | 57 | 260 | 5.2 | 13.9 | 0.00 | 0.00 | 0.00 | 46 | 1011.6 |
| 20260503184549 | 56 | 190 | 3.5 | 12.2 | 0.00 | 0.00 | 0.00 | 40 | 1011.0 |
| 20260503183117 | 56 | 310 | 5.2 | 15.6 | 0.00 | 0.00 | 0.00 | 43 | 1011.1 |
| 20260503181523 | 56 | 343 | 7.8 | 13.0 | 0.00 | 0.00 | 0.00 | 42 | 1011.3 |
| 20260503180143 | 55 | 343 | 6.1 | 16.5 | 0.00 | 0.00 | 0.00 | 43 | 1011.3 |
| 20260503174531 | 55 | 305 | 7.8 | 17.4 | 0.00 | 0.00 | 0.00 | 41 | 1011.3 |
| 20260503174525 | 55 | 309 | 7.8 | 17.4 | 0.00 | 0.00 | 0.00 | 41 | 1012.2 |
| 20260503173018 | 54 | 253 | 5.2 | 15.6 | 0.00 | 0.00 | 0.00 | 45 | 1011.5 |
| 20260503172005 | 55 | 311 | 7.0 | 13.9 | 0.00 | 0.00 | 0.00 | 47 | 1012.2 |
| 20260503171618 | 54 | 279 | 5.2 | 13.9 | 0.00 | 0.00 | 0.00 | 50 | 1011.7 |
| 20260503171004 | 54 | 300 | 7.0 | 14.8 | 0.00 | 0.00 | 0.00 | 46 | 1012.2 |
| 20260503130120 | 48 | 345 | 5.2 | 13.9 | 0.00 | 0.00 | 0.00 | 60 | 1012.1 |
| 20260503110133 | 45 | 334 | 6.1 | 13.0 | 0.00 | 0.00 | 0.00 | 60 | 1011.3 |
| 20260503081507 | 45 | 360 | 2.6 | 5.2 | 0.00 | 0.00 | 0.00 | 65 | 1010.1 |
| 20260503071547 | 46 | 355 | 2.6 | 5.2 | 0.00 | 0.00 | 0.00 | 62 | 1009.3 |
| 20260503071003 | 46 | 351 | 3.5 | 6.1 | 0.00 | 0.00 | 0.00 | 62 | 1009.9 |
| 20260503054007 | 49 | 323 | 2.6 | 7.0 | 0.00 | 0.00 | 0.00 | 57 | 1010.4 |
| 20260503053504 | 49 | 335 | 2.6 | 7.0 | 0.00 | 0.00 | 0.00 | 56 | 1010.5 |
| 20260503053130 | 49 | 324 | 1.7 | 7.0 | 0.00 | 0.00 | 0.00 | 56 | 1009.8 |
| 20260503053007 | 49 | 337 | 3.5 | 7.0 | 0.00 | 0.00 | 0.00 | 56 | 1010.4 |
| 20260503051538 | 49 | 340 | 1.7 | 7.0 | 0.00 | 0.00 | 0.00 | 56 | 1009.8 |
| 20260503050041 | 49 | 325 | 1.7 | 4.3 | 0.00 | 0.00 | 0.00 | 56 | 1009.9 |
| 20260503044005 | 50 | 322 | 1.7 | 4.3 | 0.00 | 0.00 | 0.00 | 55 | 1010.9 |
| 20260503043108 | 50 | 330 | 1.7 | 4.3 | 0.00 | 0.00 | 0.00 | 54 | 1010.2 |
| 20260503041526 | 50 | 325 | 2.6 | 7.0 | 0.00 | 0.00 | 0.00 | 53 | 1010.2 |
| 20260503040120 | 51 | 320 | 1.7 | 5.2 | 0.00 | 0.00 | 0.00 | 53 | 1010.3 |
| 20260503040029 | 51 | 321 | 2.6 | 5.2 | 0.00 | 0.00 | 0.00 | 52 | 1011.0 |
| 20260503034615 | 51 | 336 | 2.6 | 7.0 | 0.00 | 0.00 | 0.00 | 52 | 1010.2 |
| 20260503034505 | 51 | 319 | 3.5 | 7.0 | 0.00 | 0.00 | 0.00 | 52 | 1010.9 |
| 20260503031600 | 51 | 335 | 2.6 | 7.8 | 0.00 | 0.00 | 0.00 | 52 | 1010.1 |
| 20260503031503 | 52 | 329 | 3.5 | 7.8 | 0.00 | 0.00 | 0.00 | 53 | 1010.8 |
| 20260503030104 | 51 | 338 | 3.5 | 7.0 | 0.00 | 0.00 | 0.00 | 53 | 1010.1 |
| 20260503024616 | 51 | 320 | 2.6 | 5.2 | 0.00 | 0.00 | 0.00 | 53 | 1010.2 |
| 20260503024004 | 52 | 316 | 1.7 | 2.6 | 0.00 | 0.00 | 0.00 | 53 | 1010.9 |
| 20260503023013 | 51 | 312 | 1.7 | 4.3 | 0.00 | 0.00 | 0.00 | 53 | 1010.2 |
| 20260503022006 | 52 | 327 | 1.7 | 3.5 | 0.00 | 0.00 | 0.00 | 53 | 1011.0 |
| 20260503021508 | 52 | 332 | 1.7 | 3.5 | 0.00 | 0.00 | 0.00 | 52 | 1010.3 |
| 20260503020003 | 52 | 312 | 0.9 | 3.5 | 0.00 | 0.00 | 0.00 | 51 | 1010.3 |
| 20260503014538 | 53 | 338 | 1.7 | 4.3 | 0.00 | 0.00 | 0.00 | 50 | 1010.2 |
| 20260503013113 | 53 | 350 | 1.7 | 3.5 | 0.00 | 0.00 | 0.00 | 50 | 1010.1 |
| 20260503012504 | 54 | 312 | 2.6 | 4.3 | 0.00 | 0.00 | 0.00 | 50 | 1010.8 |
| 20260503012011 | 54 | 310 | 2.6 | 4.3 | 0.00 | 0.00 | 0.00 | 49 | 1010.8 |
| 20260503011537 | 53 | 334 | 2.6 | 4.3 | 0.00 | 0.00 | 0.00 | 48 | 1010.2 |
| 20260503010010 | 53 | 300 | 1.7 | 4.3 | 0.00 | 0.00 | 0.00 | 48 | 1010.1 |
| 20260503010005 | 54 | 327 | 1.7 | 4.3 | 0.00 | 0.00 | 0.00 | 48 | 1010.8 |
| 20260503004534 | 54 | 312 | 1.7 | 5.2 | 0.00 | 0.00 | 0.00 | 48 | 1009.8 |
| 20260503004504 | 54 | 321 | 1.7 | 5.2 | 0.00 | 0.00 | 0.00 | 49 | 1010.4 |
| 20260503003113 | 54 | 306 | 0.9 | 3.5 | 0.00 | 0.00 | 0.00 | 50 | 1009.7 |
| 20260503001522 | 54 | 286 | 0.0 | 2.6 | 0.00 | 0.00 | 0.00 | 49 | 1009.6 |
| 20260503000020 | 55 | 308 | 1.7 | 3.5 | 0.00 | 0.00 | 0.00 | 47 | 1009.3 |
| 20260502234525 | 55 | 329 | 2.6 | 3.5 | 0.00 | 0.00 | 0.00 | 47 | 1009.3 |
| 20260502233503 | 56 | 333 | 2.6 | 5.2 | 0.00 | 0.00 | 0.00 | 47 | 1009.9 |
| 20260502233107 | 55 | 329 | 2.6 | 5.2 | 0.00 | 0.00 | 0.00 | 46 | 1009.2 |
| 20260502231634 | 56 | 355 | 2.6 | 7.0 | 0.00 | 0.00 | 0.00 | 44 | 1009.3 |
| 20260502231504 | 57 | 324 | 3.5 | 8.7 | 0.00 | 0.00 | 0.00 | 44 | 1010.1 |
| 20260502225505 | 59 | 318 | 4.3 | 10.4 | 0.00 | 0.00 | 0.00 | 41 | 1010.0 |
| 20260502223009 | 59 | 331 | 5.2 | 10.4 | 0.00 | 0.00 | 0.00 | 41 | 1009.0 |
| 20260502222508 | 60 | 354 | 7.0 | 11.3 | 0.00 | 0.00 | 0.00 | 41 | 1009.6 |
| 20260502221603 | 60 | 347 | 7.0 | 11.3 | 0.00 | 0.00 | 0.00 | 39 | 1008.8 |
| 20260502220011 | 60 | 30 | 1.7 | 5.2 | 0.00 | 0.00 | 0.00 | 40 | 1009.6 |
| 20260502214542 | 60 | 329 | 1.7 | 3.5 | 0.00 | 0.00 | 0.00 | 43 | 1009.0 |
| 20260502213150 | 59 | 253 | 0.9 | 7.0 | 0.00 | 0.00 | 0.00 | 42 | 1009.0 |
| 20260502211556 | 59 | 323 | 1.7 | 7.8 | 0.00 | 0.00 | 0.00 | 45 | 1008.9 |
| 20260502211005 | 60 | 285 | 2.6 | 7.8 | 0.00 | 0.00 | 0.00 | 45 | 1009.5 |
| 20260502210046 | 59 | 238 | 1.7 | 3.5 | 0.00 | 0.00 | 0.00 | 44 | 1008.6 |
| 20260502205004 | 59 | 323 | 3.5 | 7.8 | 0.00 | 0.00 | 0.00 | 47 | 1009.3 |
| 20260502204532 | 59 | 223 | 3.5 | 7.8 | 0.00 | 0.00 | 0.00 | 45 | 1008.7 |
| 20260502204504 | 59 | 324 | 3.5 | 7.0 | 0.00 | 0.00 | 0.00 | 45 | 1009.4 |
| 20260502203108 | 59 | 290 | 1.7 | 9.6 | 0.00 | 0.00 | 0.00 | 46 | 1008.8 |
| 20260502201531 | 59 | 332 | 4.3 | 11.3 | 0.00 | 0.00 | 0.00 | 47 | 1009.0 |
| 20260502201527 | 59 | 318 | 3.5 | 11.3 | 0.00 | 0.00 | 0.00 | 45 | 1009.7 |
| 20260502200510 | 59 | 314 | 2.6 | 7.0 | 0.00 | 0.00 | 0.00 | 48 | 1009.8 |
| 20260502200017 | 58 | 295 | 2.6 | 6.1 | 0.00 | 0.00 | 0.00 | 47 | 1009.1 |
| 20260502194601 | 58 | 238 | 1.7 | 8.7 | 0.00 | 0.00 | 0.00 | 46 | 1009.3 |
| 20260502192011 | 60 | 304 | 3.5 | 8.7 | 0.00 | 0.00 | 0.00 | 49 | 1010.4 |
| 20260502191659 | 60 | 322 | 4.3 | 8.7 | 0.00 | 0.00 | 0.00 | 48 | 1009.8 |
| 20260502191004 | 59 | 309 | 5.2 | 11.3 | 0.00 | 0.00 | 0.00 | 46 | 1010.5 |